CZ-6A DEB

Satellite information

Favourite Embed

Satellite Type and Status

DEBRISIN ORBIT

Key statistics

Satellite CZ-6A DEB at a glance.

Uptime

1129

Days in orbit

Revolutions

≈ 13.9

Per day

Orbit

SSO

Sun Synchronous Orbit

Inclination

98.9

Latest

Satellite identification and parameters

Extended collection of information and parameters for CZ-6A DEB.

Object identification

Identified? True

Debris? True

Object name: CZ-6A DEB

International designator: 2022-151AEU

Object number (NORAD): 56620

Object ID (CCSDS): 56620

Country: PEOPLES REPUBLIC OF CHINA (PRC)

Current information (Y/N): Y

RCS size: SMALL

Orbital parameters

Period: 103.768 minutes

Inclination: 98.911 deg

SMA: 7314.794 km

Apoapsis: 1050.177 km

Periapsis: 823.142 km

RAAN: 307.1591 deg

Eccentricy: 0.01551884

Argument of periapsis: 257.4525 deg

Mean anomaly: 100.9237 deg

Mean motion: 13.8771272 rev/day

Mean motion (dot): 0.00001008 rev/day2

B* drag term: 0.00080627693 1/REarth

Two-line elements (TLE)

Creation date: Dec. 14, 2025, 3:07 a.m.

Reference frame: TEME

Reference center: EARTH

Epoch: Dec. 13, 2025, 2:44 p.m. UTC

TLE line 0: 0 CZ-6A DEB

TLE line 1: 1 56620U 22151AEU 25347.61456875 .00001008 00000-0 80628-3 0 9999

TLE line 2: 2 56620 98.9110 307.1591 0155188 257.4525 100.9237 13.87712720138465

Live tracking on map

Real-time ground track for satellite CZ-6A DEB.

In-orbit conjunctions

A list of the most updated potential collisions computed for object CZ-6A DEB.

Target Orbit TCA Probability of collision Miss distance Type
ATLAS D DEB SSO 2025-12-13 17:31:36 0.0001159153 831.0 (m) DEBRIS
FENGYUN 1C DEB SSO 2025-03-31 23:56:07 0.00100766 63.0 (m) DEBRIS

Associated space launch

Chinese satellite reported for atmospheric/ocean/environmental/spatial parameter research purposes, details TBD.

CZ-6A DEB was lifted into orbit during the mission ‘Long March 6A | Yunhai 3’, on board a Long March 6A space rocket.

The launch took place on Nov. 11, 2022, 10:52 p.m. from Launch Complex 9A.

For more information about the launch, click the button.

Launch to space Long March 6A | Yunhai 3
Long March 6A | Yunhai 3

Agency: N/A

Status: Launch Successful

Launch date: Nov. 11, 2022, 10:52 p.m. UTC

Rocket: Long March 6A

Launch pad: Launch Complex 9A

Location: Taiyuan Satellite Launch Center, People's Republic of China

...

Latest news about this satellite

There are no fresh news available about this satellite. Check back as we update our databases every day.


Newsletter sign-up

Weekly statistics, charts and insights to help you stay on top of the space industry.